QPF
0.22 0.18 0.12 0.08 0.05 0.07 0.08 0.07 0.05 0.02 0.05 0.19 0.09 0.02 0.00 0.02 0.06 0.16 0.15 0.14 0.11 0.05 0.02 0.00 0.00 0.00 0.00 0.00 0.00 0.02 0.09 0.20 0.26 0.27 0.09 0.02 0.05 0.01 0.00 0.00 0.00 0.00 0.00 0.00
0.14 0.12 0.12 0.13 0.11 0.03 0.05 0.07 0.07 0.13 0.05 0.06 0.02 0.00 0.00 0.05 0.10 0.17 0.16 0.11 0.09 0.03 0.00 0.00 0.00 0.00 0.00 0.00 0.00 0.00 0.04 0.15 0.27 0.28 0.10 0.01 0.05 0.01 0.00 0.00 0.00 0.00 0.00 0.00
0.11 0.17 0.23 0.30 0.18 0.02 0.05 0.07 0.05 0.18 0.17 0.03 0.01 0.01 0.01 0.07 0.12 0.21 0.20 0.11 0.07 0.02 0.00 0.00 0.00 0.00 0.00 0.00 0.00 0.00 0.06 0.08 0.20 0.16 0.07 0.01 0.01 0.00 0.00 0.00 0.00 0.00 0.00 0.00
0.13 0.16 0.20 0.28 0.10 0.02 0.06 0.06 0.02 0.03 0.04 0.02 0.00 0.01 0.03 0.09 0.20 0.19 0.16 0.12 0.03 0.00 0.00 0.00 0.00 0.00 0.00 0.00 0.00 0.00 0.07 0.02 0.04 0.01 0.00 0.00 0.00 0.00 0.00 0.00 0.00 0.00 0.00 0.00
0.09 0.14 0.17 0.14 0.03 0.03 0.08 0.06 0.00 0.01 0.00 0.00 0.00 0.00 0.03 0.11 0.22 0.21 0.09 0.04 0.01 0.00 0.00 0.00 0.00 0.00 0.00 0.00 0.00 0.00 0.00 0.01 0.00 0.00 0.00 0.00 0.00 0.00 0.00 0.00 0.00 0.00 0.00 0.00
0.10 0.23 0.39 0.30 0.08 0.03 0.06 0.03 0.00 0.00 0.00 0.01 0.01 0.01 0.01 0.08 0.22 0.15 0.02 0.03 0.02 0.00 0.00 0.00 0.00 0.00 0.00 0.00 0.00 0.00 0.00 0.00 0.00 0.00 0.00 0.00 0.00 0.00 0.00 0.00 0.00 0.00 0.00 0.00
0.11 0.16 0.23 0.16 0.08 0.01 0.01 0.01 0.01 0.03 0.01 0.01 0.00 0.00 0.01 0.10 0.19 0.17 0.08 0.02 0.01 0.00 0.00 0.00 0.00 0.00 0.00 0.00 0.00 0.00 0.00 0.00 0.00 0.00 0.00 0.00 0.00 0.00 0.00 0.00 0.00 0.00 0.00 0.00
0.10 0.12 0.21 0.23 0.16 0.03 0.00 0.00 0.01 0.02 0.02 0.01 0.00 0.00 0.02 0.14 0.19 0.14 0.04 0.01 0.00 0.00 0.04 0.03 0.04 0.03 0.02 0.00 0.00 0.00 0.00 0.00 0.00 0.00 0.00 0.00 0.00 0.00 0.00 0.00 0.00 0.00 0.00 0.00
0.11 0.11 0.06 0.01 0.01 0.02 0.02 0.00 0.03 0.06 0.04 0.02 0.00 0.00 0.03 0.19 0.22 0.14 0.01 0.00 0.00 0.00 0.12 0.08 0.06 0.02 0.02 0.00 0.00 0.00 0.00 0.00 0.01 0.01 0.00 0.00 0.00 0.00 0.00 0.00 0.00 0.00 0.00 0.00
0.09 0.17 0.11 0.06 0.03 0.02 0.03 0.00 0.04 0.13 0.05 0.01 0.00 0.00 0.04 0.08 0.19 0.14 0.01 0.00 0.00 0.01 0.12 0.06 0.01 0.00 0.00 0.00 0.00 0.00 0.00 0.01 0.01 0.01 0.00 0.00 0.00 0.00 0.00 0.00 0.00 0.00 0.00 0.00
0.07 0.20 0.09 0.04 0.02 0.04 0.03 0.00 0.04 0.10 0.05 0.01 0.00 0.00 0.04 0.02 0.08 0.14 0.06 0.00 0.00 0.00 0.04 0.03 0.02 0.00 0.00 0.00 0.00 0.00 0.01 0.01 0.00 0.00 0.00 0.00 0.00 0.00 0.00 0.00 0.00 0.00 0.00 0.00
0.05 0.14 0.06 0.03 0.05 0.05 0.03 0.01 0.05 0.11 0.05 0.01 0.00 0.00 0.00 0.00 0.01 0.07 0.07 0.03 0.00 0.00 0.00 0.00 0.00 0.00 0.00 0.00 0.00 0.00 0.00 0.00 0.00 0.00 0.00 0.00 0.00 0.00 0.00 0.00 0.00 0.00 0.00 0.00
0.04 0.09 0.05 0.02 0.06 0.04 0.02 0.01 0.07 0.11 0.04 0.01 0.00 0.00 0.00 0.00 0.00 0.03 0.12 0.10 0.08 0.02 0.00 0.01 0.00 0.00 0.00 0.00 0.00 0.00 0.00 0.00 0.00 0.00 0.00 0.00 0.00 0.00 0.00 0.00 0.00 0.00 0.00 0.00
0.05 0.06 0.03 0.03 0.06 0.04 0.02 0.01 0.08 0.10 0.04 0.01 0.00 0.00 0.00 0.00 0.00 0.01 0.11 0.17 0.05 0.11 0.10 0.08 0.07 0.02 0.00 0.00 0.00 0.00 0.00 0.00 0.00 0.00 0.00 0.00 0.00 0.00 0.00 0.00 0.00 0.00 0.00 0.00
0.03 0.04 0.02 0.04 0.04 0.04 0.01 0.00 0.12 0.11 0.03 0.01 0.00 0.00 0.00 0.00 0.00 0.00 0.03 0.09 0.00 0.01 0.07 0.08 0.06 0.04 0.01 0.00 0.00 0.00 0.00 0.00 0.00 0.00 0.00 0.00 0.00 0.00 0.00 0.00 0.00 0.00 0.00 0.00
0.01 0.04 0.02 0.04 0.04 0.04 0.03 0.03 0.10 0.13 0.03 0.00 0.00 0.00 0.00 0.00 0.00 0.00 0.00 0.00 0.00 0.00 0.00 0.00 0.00 0.00 0.00 0.00 0.00 0.00 0.00 0.00 0.00 0.00 0.00 0.00 0.00 0.00 0.00 0.00 0.00 0.00 0.00 0.00
0.03 0.04 0.04 0.04 0.03 0.01 0.04 0.02 0.02 0.09 0.07 0.01 0.00 0.00 0.00 0.00 0.00 0.00 0.00 0.00 0.00 0.00 0.00 0.00 0.00 0.00 0.00 0.00 0.00 0.00 0.00 0.00 0.00 0.00 0.00 0.00 0.00 0.00 0.00 0.00 0.00 0.00 0.00 0.00
0.08 0.08 0.07 0.05 0.03 0.01 0.02 0.01 0.04 0.13 0.17 0.06 0.03 0.00 0.00 0.00 0.00 0.00 0.00 0.00 0.00 0.00 0.00 0.00 0.00 0.00 0.00 0.00 0.00 0.00 0.00 0.00 0.00 0.00 0.00 0.00 0.00 0.00 0.00 0.00 0.00 0.00 0.00 0.00
0.21 0.18 0.10 0.07 0.03 0.01 0.02 0.02 0.06 0.04 0.14 0.14 0.06 0.00 0.00 0.00 0.00 0.00 0.00 0.00 0.00 0.00 0.00 0.00 0.00 0.00 0.00 0.00 0.00 0.00 0.00 0.00 0.00 0.00 0.00 0.00 0.00 0.00 0.00 0.00 0.00 0.00 0.00 0.00
0.37 0.20 0.09 0.07 0.02 0.02 0.04 0.02 0.02 0.03 0.04 0.07 0.05 0.01 0.00 0.00 0.00 0.00 0.00 0.00 0.00 0.00 0.00 0.00 0.00 0.00 0.00 0.00 0.00 0.00 0.00 0.00 0.00 0.00 0.00 0.00 0.00 0.00 0.00 0.00 0.00 0.00 0.00 0.00
0.39 0.25 0.06 0.04 0.01 0.01 0.01 0.01 0.00 0.00 0.00 0.00 0.00 0.00 0.00 0.00 0.00 0.00 0.00 0.00 0.00 0.00 0.00 0.00 0.00 0.00 0.00 0.00 0.00 0.00 0.00 0.00 0.00 0.00 0.00 0.00 0.00 0.00 0.00 0.00 0.00 0.00 0.00 0.00
0.22 0.07 0.04 0.01 0.01 0.02 0.00 0.00 0.00 0.00 0.00 0.00 0.00 0.00 0.00 0.00 0.00 0.00 0.00 0.00 0.00 0.00 0.00 0.00 0.00 0.00 0.00 0.00 0.00 0.00 0.00 0.00 0.00 0.00 0.00 0.00 0.00 0.00 0.00 0.00 0.00 0.00 0.00 0.00
0.16 0.10 0.12 0.06 0.07 0.03 0.00 0.00 0.00 0.00 0.00 0.00 0.00 0.00 0.00 0.00 0.00 0.00 0.00 0.00 0.00 0.00 0.00 0.00 0.00 0.00 0.00 0.00 0.00 0.00 0.00 0.00 0.00 0.00 0.00 0.00 0.00 0.00 0.00 0.00 0.00 0.00 0.00 0.00
0.29 0.16 0.14 0.04 0.03 0.00 0.00 0.00 0.00 0.00 0.00 0.00 0.00 0.00 0.00 0.00 0.00 0.00 0.00 0.00 0.00 0.00 0.00 0.00 0.00 0.00 0.00 0.00 0.00 0.00 0.00 0.00 0.00 0.00 0.00 0.00 0.00 0.00 0.00 0.00 0.00 0.00 0.00 0.00
0.21 0.06 0.00 0.00 0.00 0.00 0.00 0.00 0.00 0.00 0.00 0.00 0.00 0.00 0.00 0.00 0.00 0.00 0.00 0.00 0.00 0.00 0.00 0.00 0.00 0.00 0.00 0.00 0.00 0.00 0.00 0.00 0.00 0.00 0.00 0.00 0.00 0.00 0.00 0.00 0.00 0.00 0.00 0.00
0.14 0.07 0.01 0.00 0.00 0.00 0.00 0.00 0.00 0.00 0.00 0.00 0.00 0.00 0.00 0.00 0.00 0.00 0.00 0.00 0.00 0.00 0.00 0.00 0.00 0.00 0.00 0.00 0.00 0.00 0.00 0.00 0.00 0.00 0.00 0.00 0.00 0.00 0.00 0.00 0.00 0.00 0.00 0.00
0.11 0.05 0.00 0.00 0.00 0.00 0.00 0.00 0.00 0.00 0.00 0.00 0.00 0.00 0.00 0.00 0.00 0.00 0.00 0.00 0.00 0.00 0.00 0.00 0.00 0.00 0.00 0.00 0.00 0.00 0.00 0.00 0.00 0.00 0.00 0.00 0.00 0.00 0.00 0.00 0.00 0.00 0.00 0.00
MSLP
1004.40 1004.42 1004.11 1003.29 1003.18 1004.09 1005.08 1005.86 1006.40 1006.84 1007.60 1008.35 1008.25 1007.69 1007.32 1007.22 1007.16 1007.49 1007.79 1007.37 1006.81 1006.23 1005.71 1005.19 1003.91 1003.06 1002.41 1002.50 1004.22 1005.20 1005.99 1005.91 1005.21 1004.87 1004.28 1002.99 1002.10 1001.20 1000.40 999.90 999.81 999.58 999.47 1000.74
1003.78 1003.75 1003.13 1003.04 1002.80 1003.59 1004.57 1005.41 1005.66 1006.57 1006.75 1006.83 1006.89 1006.85 1006.68 1006.73 1006.67 1006.67 1006.70 1006.34 1006.04 1005.59 1004.94 1004.22 1002.56 1001.80 1001.92 1002.08 1002.87 1004.26 1005.22 1005.27 1004.92 1004.41 1003.33 1002.67 1002.12 1001.33 1000.61 1000.06 999.84 999.90 999.74 1000.72
1003.81 1003.17 1002.96 1002.61 1001.65 1002.92 1003.71 1004.78 1004.92 1006.04 1006.23 1005.86 1005.96 1006.05 1005.67 1005.58 1005.61 1005.80 1005.66 1005.30 1005.07 1004.67 1003.95 1002.88 1001.41 1000.95 1000.96 1001.52 1002.45 1003.40 1004.00 1003.94 1003.70 1002.80 1001.10 1000.83 1001.06 1001.00 1000.52 1000.52 1000.44 999.93 999.95 1000.40
1004.21 1003.60 1003.14 1002.41 1001.24 1002.36 1003.09 1003.84 1003.63 1004.14 1004.89 1005.18 1005.12 1005.23 1004.50 1004.39 1004.82 1004.89 1004.69 1004.73 1004.09 1003.33 1002.33 1001.60 1000.62 1000.35 1000.73 1001.07 1001.65 1002.98 1003.97 1002.72 1002.16 1001.30 1000.20 1000.09 1000.33 1000.67 1000.53 1000.40 1000.48 1000.28 999.92 999.88
1003.87 1003.36 1002.40 1001.69 1001.21 1002.22 1002.93 1003.16 1003.20 1003.48 1003.12 1003.54 1004.07 1004.19 1003.50 1003.44 1003.51 1003.89 1003.35 1003.07 1002.74 1002.14 1001.03 999.93 999.78 999.81 1000.29 1000.75 1001.75 1002.53 1003.06 1002.26 1000.87 1000.32 999.97 999.71 1000.03 1000.09 1000.04 1000.09 1000.16 1000.02 999.95 999.85
1003.58 1002.80 1001.89 1001.89 1001.61 1001.90 1002.22 1002.50 1002.78 1003.04 1002.57 1002.56 1002.77 1002.30 1002.03 1001.83 1002.14 1001.81 1001.95 1002.07 1001.79 1001.38 999.92 998.88 999.06 999.34 999.72 1000.01 1000.95 1001.83 1002.91 1002.38 1001.10 1000.36 999.89 999.71 999.60 999.17 999.41 999.72 999.86 999.72 999.73 999.68
1003.48 1002.82 1002.13 1001.38 1000.72 1001.35 1001.60 1001.97 1002.57 1003.00 1002.61 1002.21 1001.38 1000.56 1000.49 1001.04 1001.36 1001.26 1000.92 1001.34 1001.09 999.97 999.31 998.74 999.20 999.36 999.96 1000.17 1000.83 1001.49 1002.04 1002.24 1001.87 1001.24 1000.44 1000.01 998.95 998.30 998.28 998.56 998.82 999.11 999.52 999.77
1003.20 1002.57 1002.32 1001.90 1001.64 1001.05 1001.42 1001.81 1002.31 1002.41 1002.24 1001.59 1001.18 1000.02 1000.30 1000.72 1001.02 1000.74 1000.43 1000.62 1000.16 999.35 999.26 999.77 1000.88 1000.65 1000.80 1001.20 1001.60 1001.49 1001.78 1002.20 1002.17 1002.02 1001.16 999.86 999.01 998.61 998.37 998.22 998.32 998.42 999.12 999.81
1002.90 1002.40 1001.72 1001.29 1000.01 1000.51 1001.37 1001.65 1001.91 1002.42 1002.30 1001.39 1000.65 1000.32 1000.55 1000.96 1000.88 1000.89 1000.88 1000.69 1000.40 1000.05 1000.22 1000.83 1001.31 1001.11 1001.35 1001.87 1002.15 1002.04 1001.98 1002.13 1002.63 1002.66 1001.87 1000.63 999.70 998.97 998.45 998.40 998.90 998.94 998.72 999.83
1002.26 1001.96 1001.52 1000.90 1000.68 1000.29 1000.92 1001.40 1001.73 1002.27 1002.06 1001.04 1000.79 1000.54 1000.69 1000.90 1000.73 1000.92 1001.04 1000.72 1000.48 1000.18 1000.73 1000.52 1000.72 1001.15 1001.51 1001.83 1002.14 1002.47 1002.59 1002.92 1003.05 1003.05 1002.49 1000.90 999.88 999.42 999.17 999.73 1000.23 999.57 999.20 999.74
1002.01 1001.85 1001.29 1000.58 1000.07 999.81 1000.49 1001.24 1001.62 1001.87 1001.68 1000.99 1000.72 1000.70 1000.73 1000.90 1000.78 1000.76 1001.26 1001.20 1000.92 1000.82 1000.35 1000.54 1000.60 1000.95 1001.42 1001.52 1001.71 1001.89 1002.39 1002.98 1002.99 1002.94 1002.73 1001.75 1000.01 1000.15 1000.32 1000.40 1000.32 1000.35 1000.59 1001.21
1001.99 1001.34 1000.72 1000.17 999.70 999.59 1000.35 1001.01 1001.48 1001.74 1001.77 1001.05 1000.86 1000.58 1000.42 1000.55 1000.62 1000.85 1001.31 1001.23 1000.64 1000.32 1000.35 1000.67 1000.40 1000.26 1000.48 1000.42 1000.97 1001.11 1001.69 1001.51 1001.90 1002.05 1001.41 1000.69 1000.42 1000.72 1000.69 1000.67 1001.01 1001.42 1002.02 1002.91
1001.50 1000.79 1000.28 999.78 999.59 999.43 1000.16 1000.73 1001.22 1001.58 1001.50 1000.86 1000.75 1000.20 1000.15 1000.43 1000.54 1000.66 1001.09 1001.24 1000.92 1000.68 1000.70 1000.63 1000.60 1000.40 1000.22 1000.13 999.96 1000.23 1000.28 1000.44 1000.73 1001.24 1000.85 1000.81 1000.96 1001.22 1001.20 1001.28 1001.76 1002.40 1003.01 1003.82
1000.86 1000.20 999.72 999.49 999.36 999.24 1000.00 1000.44 1000.85 1000.89 1000.80 1000.54 1000.29 1000.02 1000.09 1000.19 1000.49 1000.54 1000.86 1000.84 1000.92 1000.96 1000.90 1000.89 1000.88 1000.91 1000.40 1000.43 999.96 999.68 999.76 1000.23 1000.29 1000.68 1000.88 1001.17 1001.25 1001.51 1001.73 1002.16 1002.62 1003.32 1004.04 1004.82
1000.34 999.65 999.36 999.26 999.07 999.06 999.89 1000.19 1000.44 1000.34 1000.75 1000.19 1000.21 1000.03 1000.22 1000.04 1000.11 1000.46 1000.68 1000.97 1000.88 1000.98 1001.00 1001.27 1001.34 1001.25 1001.15 1000.80 1000.32 999.81 999.51 999.37 999.82 999.75 999.73 1000.16 1000.65 1001.48 1002.10 1002.88 1003.68 1004.42 1004.95 1005.95
999.62 999.20 998.85 998.67 998.62 999.10 999.61 1000.20 1000.12 1000.13 1000.37 1000.45 1000.48 1000.53 1000.38 1000.11 1000.03 1000.20 1000.29 1000.53 1000.66 1000.63 1000.64 1000.97 1000.92 1000.88 1000.96 1000.84 1000.10 998.77 998.74 998.87 999.04 999.53 999.89 1000.16 1001.10 1001.99 1002.77 1003.70 1004.60 1005.33 1005.88 1006.56
998.99 998.40 998.19 998.27 998.22 998.85 999.37 999.72 999.57 999.63 1000.29 1000.60 1000.97 1000.89 1000.86 1000.71 1000.44 1000.57 1000.66 1000.63 1000.86 1000.93 1000.92 1001.03 1000.97 1001.00 1000.88 1000.48 999.75 998.84 999.08 999.55 999.88 1000.06 1000.57 1001.96 1002.35 1003.06 1003.75 1004.54 1005.35 1005.95 1006.72 1007.43
997.65 997.44 997.65 997.58 998.23 999.05 999.65 999.70 999.52 999.68 1000.12 1000.62 1001.10 1001.29 1001.28 1001.08 1000.90 1001.18 1001.17 1001.02 1001.06 1001.34 1001.38 1001.38 1001.29 1001.34 1001.01 1000.45 999.27 999.14 999.49 1000.15 1000.75 1001.12 1001.13 1001.75 1002.80 1003.84 1004.83 1005.52 1006.17 1007.02 1007.92 1008.63
996.38 996.76 996.99 997.89 998.37 998.87 999.30 999.53 999.84 999.92 1000.28 1000.64 1001.12 1001.15 1001.45 1001.36 1001.59 1001.63 1001.65 1001.58 1001.71 1001.96 1001.73 1001.86 1001.82 1001.22 1000.74 999.64 999.51 999.67 1000.16 1000.60 1001.54 1002.26 1002.57 1003.17 1003.98 1005.13 1005.79 1006.36 1007.10 1007.71 1008.68 1009.38
995.62 996.19 996.95 997.86 998.15 998.39 999.04 1000.03 1000.04 1000.27 1000.42 1000.71 1000.82 1000.74 1001.55 1001.78 1001.96 1002.42 1002.55 1002.52 1002.61 1002.70 1002.67 1002.48 1002.21 1001.35 1000.07 999.79 999.70 999.75 1000.33 1001.23 1001.98 1003.10 1004.27 1004.76 1005.45 1005.97 1006.66 1007.08 1007.56 1008.21 1009.11 1010.00
994.96 996.21 997.36 997.98 998.20 998.64 999.44 1000.04 1000.24 1000.45 1000.67 1000.59 1000.58 1000.78 1001.45 1002.02 1002.15 1002.73 1003.17 1003.22 1003.26 1003.20 1003.17 1003.00 1002.32 1001.49 1000.72 1000.49 1000.38 1000.36 1000.87 1001.67 1002.39 1002.64 1003.43 1004.28 1005.15 1006.04 1006.71 1007.56 1008.26 1008.94 1009.67 1010.37
995.02 996.42 997.23 998.10 998.55 999.38 999.82 1000.17 1000.54 1000.37 1000.16 1000.26 1000.53 1000.80 1001.22 1002.25 1002.13 1002.73 1003.57 1003.62 1003.75 1003.68 1003.40 1003.45 1002.63 1001.63 1001.49 1001.38 1001.43 1001.48 1001.75 1002.28 1002.83 1003.11 1003.73 1004.72 1005.62 1006.42 1007.22 1008.07 1008.92 1009.61 1010.24 1010.81
995.88 996.53 997.35 997.57 999.41 999.57 999.64 999.76 1000.14 1000.05 999.83 1000.17 1000.47 1001.22 1001.68 1002.34 1002.41 1003.46 1003.86 1004.21 1004.34 1003.97 1003.99 1003.44 1002.52 1002.31 1002.30 1002.30 1002.32 1002.56 1002.67 1002.93 1003.33 1003.99 1004.59 1005.32 1006.33 1007.09 1007.78 1008.74 1009.46 1010.11 1010.81 1011.43
996.69 996.99 997.69 997.95 998.91 998.60 998.29 998.38 998.48 998.67 999.19 999.92 1000.57 1001.33 1001.77 1002.30 1002.84 1003.73 1004.36 1004.88 1004.76 1004.89 1004.65 1003.34 1002.76 1002.89 1003.02 1003.15 1003.33 1003.47 1003.79 1004.01 1004.54 1005.08 1005.66 1006.29 1007.13 1008.14 1008.83 1009.44 1010.10 1010.75 1011.48 1012.06
997.54 997.39 997.61 998.04 998.25 998.44 998.49 998.37 998.57 998.83 999.14 999.70 1000.59 1001.50 1002.20 1002.85 1003.67 1004.16 1005.08 1005.39 1005.15 1004.53 1003.58 1003.35 1003.24 1003.41 1003.67 1003.95 1004.14 1004.37 1004.69 1005.01 1005.44 1005.94 1006.57 1007.31 1008.17 1009.00 1009.96 1010.62 1011.10 1011.54 1012.13 1012.67
998.28 998.24 998.37 998.58 998.73 999.26 999.17 999.05 998.96 998.79 999.28 999.70 1000.39 1001.72 1002.75 1003.25 1003.60 1004.29 1004.31 1004.74 1004.05 1003.51 1003.40 1003.66 1003.62 1003.95 1004.22 1004.51 1004.82 1005.12 1005.45 1005.86 1006.37 1006.97 1007.53 1008.44 1009.26 1010.05 1011.02 1011.67 1012.08 1012.46 1012.92 1013.57
998.69 999.02 998.89 998.93 998.95 999.06 999.26 999.03 999.04 998.96 999.30 1000.00 1000.60 1001.71 1002.59 1003.02 1003.60 1003.94 1003.63 1003.48 1003.33 1003.40 1003.82 1003.93 1004.12 1004.30 1004.61 1005.03 1005.51 1005.91 1006.31 1006.85 1007.43 1008.14 1008.96 1009.67 1010.35 1010.94 1011.57 1012.45 1013.23 1013.53 1014.09 1014.58
Thickness
5443 5454 5466 5482 5491 5492 5493 5496 5504 5506 5503 5504 5506 5512 5519 5524 5518 5509 5500 5502 5506 5508 5511 5507 5522 5526 5538 5548 5532 5531 5530 5540 5551 5556 5565 5587 5603 5614 5622 5622 5632 5641 5641 5628
5440 5454 5469 5479 5490 5491 5492 5496 5505 5501 5504 5511 5512 5516 5520 5518 5513 5510 5505 5506 5506 5511 5513 5512 5532 5539 5545 5551 5549 5541 5541 5547 5554 5559 5574 5586 5589 5609 5622 5634 5638 5635 5630 5624
5436 5453 5465 5479 5496 5491 5493 5495 5508 5501 5503 5513 5519 5516 5524 5525 5518 5510 5510 5512 5514 5515 5515 5530 5541 5546 5553 5558 5558 5554 5555 5559 5560 5574 5588 5600 5602 5607 5622 5624 5621 5636 5639 5634
5430 5446 5460 5477 5493 5492 5493 5496 5514 5518 5511 5509 5514 5520 5531 5529 5514 5514 5514 5510 5517 5525 5533 5535 5548 5554 5556 5563 5563 5555 5547 5568 5576 5588 5600 5609 5611 5612 5618 5621 5629 5627 5642 5644
5430 5445 5464 5480 5489 5488 5489 5497 5509 5516 5530 5526 5519 5518 5532 5531 5528 5519 5525 5528 5527 5535 5540 5553 5553 5557 5560 5560 5561 5557 5560 5568 5592 5600 5610 5618 5611 5616 5620 5625 5629 5633 5636 5639
5428 5445 5465 5471 5479 5485 5494 5500 5507 5515 5529 5532 5531 5536 5542 5546 5542 5540 5539 5531 5535 5533 5551 5565 5565 5571 5573 5576 5569 5565 5559 5569 5588 5592 5609 5614 5606 5621 5625 5626 5630 5636 5630 5645
5425 5442 5458 5472 5485 5489 5497 5502 5505 5508 5517 5528 5542 5555 5558 5551 5546 5547 5546 5540 5536 5549 5561 5570 5569 5571 5573 5578 5575 5575 5570 5570 5580 5583 5602 5578 5622 5634 5640 5637 5641 5642 5644 5648
5426 5442 5453 5464 5471 5489 5495 5499 5503 5509 5517 5531 5536 5554 5549 5543 5537 5543 5553 5547 5553 5560 5558 5549 5540 5554 5557 5560 5560 5574 5579 5576 5574 5572 5584 5607 5622 5625 5630 5629 5636 5648 5645 5646
5428 5442 5457 5468 5486 5490 5493 5497 5502 5504 5511 5523 5540 5544 5542 5541 5542 5543 5543 5547 5549 5556 5550 5548 5537 5548 5556 5556 5562 5570 5579 5583 5577 5566 5575 5579 5608 5623 5633 5641 5616 5635 5648 5643
5432 5444 5455 5466 5476 5486 5493 5498 5500 5501 5509 5526 5533 5540 5540 5539 5540 5538 5542 5552 5553 5557 5551 5554 5554 5557 5564 5561 5563 5562 5567 5567 5565 5569 5570 5589 5614 5620 5626 5607 5615 5628 5640 5640
5432 5442 5454 5470 5483 5492 5493 5496 5498 5503 5511 5524 5529 5530 5532 5539 5542 5550 5540 5549 5553 5554 5562 5560 5564 5561 5562 5566 5570 5568 5566 5558 5562 5568 5566 5571 5611 5609 5608 5611 5619 5625 5625 5624
5430 5443 5457 5471 5483 5492 5494 5496 5497 5500 5507 5519 5522 5528 5534 5537 5540 5539 5531 5544 5557 5562 5561 5560 5571 5575 5574 5580 5571 5581 5571 5578 5572 5577 5585 5601 5608 5603 5610 5615 5613 5614 5610 5607
5432 5446 5458 5470 5480 5490 5494 5495 5497 5499 5507 5518 5520 5529 5534 5535 5538 5539 5540 5538 5547 5554 5552 5562 5566 5575 5578 5577 5583 5586 5591 5591 5588 5585 5596 5598 5600 5600 5606 5611 5606 5604 5602 5599
5435 5449 5461 5469 5479 5488 5491 5495 5497 5504 5513 5523 5525 5528 5532 5535 5535 5536 5533 5538 5545 5546 5552 5558 5563 5568 5571 5577 5584 5588 5588 5584 5588 5589 5591 5591 5595 5597 5599 5596 5595 5593 5591 5587
5438 5451 5461 5468 5478 5487 5490 5494 5498 5505 5512 5525 5523 5527 5528 5534 5536 5537 5536 5535 5548 5551 5553 5556 5558 5558 5563 5566 5574 5583 5587 5590 5589 5592 5602 5602 5599 5596 5594 5590 5585 5582 5580 5571
5442 5453 5463 5472 5480 5485 5490 5496 5498 5504 5507 5518 5516 5520 5525 5533 5538 5540 5544 5542 5548 5553 5558 5558 5559 5561 5564 5561 5571 5598 5597 5598 5601 5600 5601 5601 5596 5590 5588 5581 5574 5568 5565 5561
5445 5458 5467 5474 5481 5485 5490 5500 5505 5507 5506 5511 5509 5515 5517 5523 5532 5535 5539 5543 5540 5545 5550 5553 5558 5558 5559 5569 5574 5594 5592 5589 5591 5594 5594 5582 5586 5581 5577 5572 5566 5561 5553 5547
5455 5465 5469 5477 5478 5480 5484 5491 5500 5504 5505 5506 5500 5509 5513 5518 5526 5526 5527 5537 5540 5535 5540 5542 5553 5549 5559 5559 5583 5590 5588 5584 5584 5580 5589 5586 5577 5569 5558 5553 5550 5543 5535 5529
5464 5467 5471 5470 5473 5479 5485 5490 5493 5499 5503 5498 5498 5507 5514 5513 5512 5518 5522 5524 5532 5529 5546 5547 5542 5557 5550 5576 5581 5582 5578 5582 5569 5562 5563 5563 5555 5547 5542 5540 5536 5531 5522 5515
5467 5469 5468 5467 5474 5480 5482 5481 5488 5488 5491 5494 5505 5514 5509 5509 5510 5505 5513 5509 5517 5513 5527 5525 5534 5551 5570 5575 5577 5579 5574 5562 5555 5546 5538 5538 5536 5533 5531 5530 5526 5521 5512 5504
5468 5465 5462 5465 5470 5473 5473 5475 5485 5487 5487 5498 5505 5511 5506 5504 5507 5502 5496 5501 5499 5517 5520 5525 5534 5553 5557 5556 5561 5562 5555 5551 5550 5554 5544 5542 5534 5528 5527 5518 5512 5506 5499 5492
5468 5462 5462 5461 5462 5460 5468 5473 5470 5482 5489 5497 5503 5508 5506 5491 5498 5495 5491 5497 5497 5514 5511 5516 5535 5539 5536 5540 5547 5547 5545 5545 5544 5543 5538 5530 5526 5520 5513 5505 5497 5490 5484 5479
5458 5458 5457 5463 5447 5465 5469 5475 5475 5485 5493 5491 5493 5492 5489 5486 5491 5481 5483 5489 5497 5497 5508 5523 5528 5516 5521 5522 5525 5523 5529 5533 5533 5528 5524 5517 5508 5503 5498 5489 5483 5478 5472 5466
5445 5448 5457 5467 5464 5469 5477 5485 5489 5490 5491 5488 5486 5483 5485 5484 5480 5477 5470 5475 5481 5485 5490 5496 5511 5506 5506 5513 5507 5508 5510 5512 5509 5505 5502 5499 5494 5485 5480 5475 5470 5465 5457 5451
5436 5446 5465 5464 5454 5454 5461 5469 5476 5481 5486 5483 5478 5474 5473 5471 5463 5470 5466 5472 5469 5485 5498 5497 5497 5495 5494 5494 5495 5497 5496 5496 5495 5491 5487 5481 5475 5469 5461 5455 5452 5448 5442 5438
5424 5431 5442 5442 5450 5445 5454 5461 5467 5471 5477 5470 5468 5465 5458 5465 5463 5465 5456 5461 5476 5492 5485 5478 5477 5484 5486 5486 5484 5483 5484 5482 5479 5475 5470 5464 5458 5451 5443 5437 5434 5432 5428 5422
5418 5422 5430 5436 5445 5448 5450 5456 5459 5469 5472 5468 5464 5463 5456 5462 5465 5455 5464 5474 5480 5468 5467 5467 5474 5475 5477 5475 5472 5470 5469 5466 5462 5456 5449 5444 5439 5434 5429 5421 5414 5413 5408 5402